Date,TemperatureHighF,TemperatureAvgF,TemperatureLowF,DewpointHighF,DewpointAvgF,DewpointLowF,HumidityHigh,HumidityAvg,HumidityLow,PressureMaxIn,PressureMinIn,WindSpeedMaxMPH,WindSpeedAvgMPH,GustSpeedMaxMPH,PrecipitationSumIn
2013-1-1,49.0,46.7,43.9,34.8,25.2,1.9,69,46,15,30.10,29.93,0,0,0,0.21
2013-1-2,48.6,44.6,40.0,37.0,18.0,-8.6,68,42,8,30.17,29.94,0,0,0,0.20
2013-1-3,43.7,39.1,29.2,31.8,20.2,9.4,67,48,31,30.25,30.14,0,0,0,0.00
2013-1-4,48.4,37.3,27.4,27.0,20.2,5.1,70,51,38,30.30,30.17,0,0,0,0.00
2013-1-5,49.3,37.3,28.4,30.6,25.0,20.0,70,62,44,30.38,30.23,0,0,0,0.00
2013-1-6,51.7,43.9,38.5,39.0,33.3,27.6,70,66,61,30.23,30.05,0,0,0,0.01
2013-1-7,49.7,39.7,31.1,34.1,27.9,18.1,71,63,53,30.42,30.18,0,0,0,0.00
2013-1-8,54.0,41.3,28.8,41.5,30.4,17.5,70,65,50,30.46,30.35,0,0,0,0.00
2013-1-9,64.6,49.7,35.3,53.0,35.4,9.9,69,59,29,30.44,30.34,0,0,0,0.00
2013-1-10,62.8,54.5,48.6,46.4,37.6,17.8,69,55,27,30.52,30.42,0,0,0,0.00
2013-1-11,49.9,46.2,41.8,38.5,19.4,-7.4,71,41,5,30.42,30.15,0,0,0,0.20
2013-1-12,68.2,56.9,46.4,42.3,7.0,-7.2,39,10,1,30.17,30.10,0,0,0,0.00
2013-1-13,62.8,56.5,52.2,30.8,6.4,-2.8,30,10,2,30.11,30.07,0,0,0,0.00
2013-1-14,63.0,61.4,57.2,5.7,4.4,1.1,1,1,1,30.15,30.12,0,0,0,0.01
2013-1-15,55.4,45.6,43.4,-0.2,-7.7,-9.6,12,6,2,30.23,30.08,0,0,0,0.13
2013-1-16,49.5,46.0,41.0,-4.8,-7.5,-11.3,7,2,1,30.07,29.97,0,0,0,0.17
2013-1-17,50.2,45.4,33.5,3.9,-7.3,-17.4,24,3,1,30.15,29.89,0,0,0,1.46
2013-1-18,41.8,34.6,28.8,30.3,7.8,-17.8,67,38,3,30.51,30.14,0,0,0,0.29
2013-1-19,49.9,34.7,24.5,33.5,16.3,-7.9,67,48,18,30.48,30.14,0,0,0,0.16
2013-1-20,59.4,46.3,36.7,38.0,31.1,25.3,66,56,41,30.14,29.99,0,0,0,0.00
2013-1-21,57.1,43.1,29.5,34.5,24.5,9.7,67,49,34,30.09,29.86,0,0,0,0.00
2013-1-22,40.7,32.3,23.9,19.4,7.1,-0.4,47,35,22,30.27,29.96,0,0,0,0.00
2013-1-23,40.9,27.9,17.8,17.6,10.7,4.4,65,49,37,30.35,30.03,0,0,0,0.00
2013-1-24,36.5,30.6,24.7,23.6,12.4,3.5,67,48,31,30.49,29.95,0,0,0,0.00
2013-1-25,27.2,24.6,19.8,16.7,10.7,4.2,70,55,42,30.49,30.09,0,0,0,0.01
2013-1-26,37.8,30.8,26.5,24.8,11.4,-6.6,59,45,23,30.39,30.06,0,0,0,0.02
2013-1-27,40.0,31.9,23.0,28.7,18.3,3.5,67,57,38,30.57,30.37,0,0,0,0.02
2013-1-28,49.9,42.1,32.6,38.8,25.8,-1.5,66,54,13,30.48,30.22,0,0,0,0.03
2013-1-29,70.4,57.3,47.7,56.9,24.4,-6.2,66,34,1,30.23,30.05,0,0,0,0.00
2013-1-30,71.3,65.3,57.2,52.8,19.7,1.4,54,18,1,30.06,29.39,0,0,0,0.38
2013-1-31,60.1,44.9,33.7,36.1,24.8,2.3,65,47,12,30.00,29.47,0,0,0,0.07